This is the latest recevied weather packets stored in our database for station/object F8KHU-13. If no packets are shown the sender has not sent any weather packets the latest 10 day(s).
| Time | Temp. | Humidity | Pressure | Rain* | Wind** | Luminosity | Snow |
|---|---|---|---|---|---|---|---|
| 1788637225 | 21.11° C | 27% | 1026.1 hPa | 0 mm | - | 0 W/m² | - |
| 1788636365 | 21.67° C | 26% | 1026.2 hPa | 0 mm | - | 0 W/m² | - |
| 1788636345 | 21.67° C | 26% | 1026.2 hPa | 0 mm | - | 0 W/m² | - |
| 1788635445 | 22.22° C | 25% | 1025.9 hPa | 0 mm | - | 0 W/m² | - |
| 1788635425 | 21.67° C | 27% | 1025.9 hPa | 0 mm | - | 0 W/m² | - |
| 1788634565 | 22.78° C | 26% | 1025.7 hPa | 0 mm | - | 0 W/m² | - |
| 1788634545 | 22.78° C | 25% | 1025.6 hPa | 0 mm | - | 0 W/m² | - |
| 1788634525 | 22.78° C | 26% | 1025.7 hPa | 0 mm | - | 0 W/m² | - |
| 1788633625 | 23.33° C | 26% | 1025.6 hPa | 0 mm | - | 0 W/m² | - |
| 1788632766 | 23.89° C | 25% | 1025.3 hPa | 0 mm | - | 0 W/m² | - |
| 1788632746 | 23.89° C | 26% | 1025.4 hPa | 0 mm | - | 0 W/m² | - |
| 1788632726 | 23.89° C | 26% | 1025.3 hPa | 0 mm | - | 0 W/m² | - |
| 1788631866 | 25° C | 25% | 1025.2 hPa | 0 mm | - | 0 W/m² | - |
| 1788631826 | 25° C | 25% | 1025.3 hPa | 0 mm | - | 0 W/m² | - |
| 1788630946 | 25° C | 25% | 1025.4 hPa | 0 mm | - | 0 W/m² | - |
| 1788630061 | 25.56° C | 24% | 1025.3 hPa | 0 mm | - | 0 W/m² | - |
| 1788630041 | 25.56° C | 25% | 1025.3 hPa | 0 mm | - | 0 W/m² | - |
| 1788629161 | 26.67° C | 24% | 1025.4 hPa | 0 mm | - | 0 W/m² | - |
| 1788629141 | 26.67° C | 23% | 1025.3 hPa | 0 mm | - | 0 W/m² | - |
| 1788628261 | 26.67° C | 24% | 1025.4 hPa | 0 mm | - | 0 W/m² | - |
| 1788628241 | 26.67° C | 24% | 1025.3 hPa | 0 mm | - | 0 W/m² | - |
| 1788627362 | 27.78° C | 24% | 1025.2 hPa | 0 mm | - | 0 W/m² | - |
| 1788627342 | 27.78° C | 24% | 1025.3 hPa | 0 mm | - | 0 W/m² | - |
| 1788626461 | 27.78° C | 24% | 1025.1 hPa | 0 mm | - | 0 W/m² | - |
| 1788626442 | 27.78° C | 24% | 1025.2 hPa | 0 mm | - | 0 W/m² | - |
* Rain latest hour (hover to see other rain measurements)
** Current wind speed in m/s (hover to see current wind gust speed)